Volver al catálogo

STARLINK-11605

ActivoComunicacionesVLEO
NORAD 63134·PAYLOAD·🇺🇸 United States

Lanzado Mar 3, 2025 desde Cape Canaveral Space Force Station

Loading…

Próximos Pases (próximas 24 horas)

TLE

ActualizadoSource: CelesTrak SupGP

Época: Sep 15, 2026, 03:07 UTC

1 63134C 25043C   26258.13034722 -.00059385  00000+0 -46128-3 0  2589
2 63134  43.0007 189.0131 0001508 264.1877 116.9320 15.70865931    13

Sigue STARLINK-11605 en tiempo real con AllMySat

Download on the App Store